Temp
-6 -5 -5 -4 -4 -3 -1 -1 -0 0 1 5 7 8 9 10 11 12 11 12 12 13
-6 -6 -5 -4 -4 -3 -2 -2 -1 -0 0 1 4 7 8 10 11 11 12 12 12 13
-6 -6 -6 -5 -4 -3 -3 -2 -1 -0 2 3 4 5 7 8 9 11 11 12 11 13
-7 -7 -6 -5 -5 -4 -3 -2 -0 1 3 3 3 4 5 7 8 9 10 10 11 12
-7 -7 -7 -6 -5 -4 -4 -2 -1 1 2 4 4 4 5 5 6 7 8 9 11 12
-7 -8 -7 -6 -5 -5 -4 -3 -2 0 2 3 3 4 4 4 5 7 7 8 10 10
-7 -7 -7 -6 -5 -5 -5 -4 -4 -3 -2 -1 0 2 3 4 5 6 7 8 9 9
-5 -5 -5 -5 -5 -4 -4 -4 -4 -3 -3 -3 -3 -1 1 1 3 5 5 6 6 7
-4 -3 -4 -3 -3 -3 -3 -3 -2 -2 -3 -3 -4 -2 -3 -1 -0 2 2 2 2 3
-4 -4 -3 -3 -3 -2 -3 -2 -2 -3 -4 -4 -4 -3 -3 -3 -3 -2 -1 -1 -0 0
-4 -4 -4 -3 -3 -3 -3 -3 -3 -5 -5 -5 -6 -4 -3 -2 -3 -3 -3 -3 -3 -2
-5 -4 -4 -4 -4 -4 -4 -4 -4 -4 -5 -4 -6 -5 -4 -3 -4 -4 -4 -3 -4 -3
-6 -5 -5 -5 -5 -6 -6 -6 -6 -6 -6 -7 -6 -6 -5 -4 -3 -3 -4 -5 -5 -5
-7 -6 -6 -6 -6 -5 -6 -6 -6 -7 -7 -7 -8 -9 -8 -7 -6 -6 -6 -6 -5 -6
Height
1418 1412 1407 1403 1398 1395 1393 1391 1388 1386 1387 1388 1391 1396 1401 1405 1409 1413 1416 1419 1421 1425
1416 1409 1404 1398 1394 1390 1388 1385 1382 1380 1379 1379 1381 1386 1390 1392 1395 1400 1405 1407 1410 1412
1413 1407 1401 1394 1389 1385 1381 1378 1376 1375 1372 1370 1372 1376 1379 1382 1386 1389 1394 1397 1400 1403
1412 1406 1399 1393 1388 1383 1377 1373 1369 1368 1366 1366 1368 1370 1372 1374 1377 1380 1385 1389 1392 1396
1414 1408 1400 1393 1387 1381 1376 1372 1368 1364 1362 1362 1364 1366 1367 1369 1371 1374 1377 1380 1385 1389
1415 1409 1402 1395 1388 1383 1377 1373 1369 1365 1362 1360 1360 1361 1363 1364 1366 1367 1369 1374 1377 1380
1420 1413 1406 1401 1395 1388 1384 1378 1374 1369 1365 1363 1362 1361 1361 1362 1362 1362 1364 1367 1370 1373
1427 1421 1414 1407 1402 1396 1389 1385 1381 1376 1371 1367 1367 1363 1363 1365 1363 1362 1362 1365 1367 1368
1435 1427 1421 1415 1410 1404 1398 1392 1386 1382 1381 1379 1376 1373 1372 1370 1366 1364 1363 1365 1367 1368
1441 1435 1429 1424 1418 1412 1407 1403 1399 1397 1394 1391 1391 1390 1386 1379 1375 1370 1368 1369 1370 1371
1448 1443 1437 1431 1426 1421 1418 1413 1410 1408 1405 1403 1402 1401 1395 1391 1385 1381 1378 1377 1378 1377
1455 1449 1444 1438 1434 1431 1427 1422 1420 1418 1415 1412 1411 1408 1404 1400 1396 1392 1388 1387 1388 1383
1462 1457 1451 1447 1443 1439 1435 1432 1429 1426 1423 1422 1418 1416 1412 1409 1404 1399 1396 1395 1392 1390
1468 1464 1459 1455 1451 1447 1443 1440 1437 1434 1431 1428 1425 1423 1419 1415 1412 1410 1407 1403 1401 1400
Wind_Speed
28 27 26 26 27 29 29 28 26 25 25 26 27 32 37 40 39 36 36 41 44 45
26 25 23 22 23 26 25 24 24 23 26 24 23 25 30 37 39 38 39 39 36 39
23 23 20 20 21 20 21 21 21 21 23 18 18 20 23 26 31 37 36 32 31 32
26 21 17 15 13 13 13 14 13 12 11 6 11 14 19 21 22 27 29 30 28 27
25 23 19 18 16 17 16 14 12 10 7 5 7 11 15 19 20 19 20 24 26 22
25 28 27 26 26 25 24 24 20 18 14 11 6 5 9 12 14 17 22 20 23 27
29 29 31 31 33 37 36 35 34 31 29 24 18 11 6 2 10 11 14 15 18 21
32 33 35 38 38 40 42 43 43 40 39 37 32 27 20 14 11 10 9 8 9 11
29 31 34 36 38 40 43 44 44 45 44 43 44 34 32 27 25 18 16 15 12 6
31 33 34 35 35 36 38 39 42 43 44 43 40 37 37 39 37 35 31 27 23 21
28 30 31 33 35 37 38 39 40 41 39 39 38 34 35 35 37 38 37 36 32 28
26 28 29 32 33 34 34 36 37 37 38 38 38 36 32 30 32 33 34 33 32 30
25 25 28 28 30 31 32 34 34 34 36 36 36 35 33 31 32 30 30 29 30 30
24 26 27 27 28 29 30 30 32 34 34 35 34 34 35 34 33 31 29 29 28 25
Wind_Direction
334 326 317 310 310 308 304 304 305 296 283 266 250 242 239 235 234 243 251 253 249 249
344 336 328 319 309 303 298 297 303 301 291 276 262 248 242 243 241 239 244 254 256 254
358 343 337 329 324 319 313 304 300 290 299 284 267 261 254 252 248 245 242 248 256 254
18 2 2 0 357 356 348 337 324 311 326 292 279 271 265 260 258 253 248 245 250 251
35 22 36 40 44 42 38 31 24 14 4 334 290 283 279 274 264 252 246 247 245 246
48 43 48 56 58 59 59 54 52 50 43 34 14 330 301 287 265 248 241 237 232 233
52 55 58 62 66 66 65 65 61 61 63 63 62 69 74 208 242 223 214 216 215 216
55 58 63 63 64 67 68 66 65 64 64 66 65 68 75 80 104 132 144 175 209 233
51 56 58 62 63 62 61 62 65 65 62 61 65 72 75 80 84 94 96 95 95 102
52 55 58 60 60 59 61 64 62 60 60 60 61 64 66 72 73 77 78 80 82 83
55 55 57 59 60 60 60 60 61 61 60 60 57 56 60 62 65 68 68 67 66 69
53 55 55 56 57 59 60 61 60 60 59 58 55 54 52 56 58 59 61 61 56 56
57 57 58 58 58 59 59 58 57 58 58 56 53 53 54 51 53 55 54 52 49 48
58 60 61 61 61 61 60 60 57 55 55 53 53 48 46 48 49 48 49 48 46 45